CW4120 Weather Reports


Display with metric or nautical units.
time (UTC)temp
F
wind
direction
speed
MPH
gust
MPH
rain 1hr
in
rain 24hr
in
rain mn
in
humidity
%
barometer
mb
20260504191532 75 276 3.0 10.0 0.00 0.00 0.00 36 1011.2
20260504190532 76 208 7.0 17.0 0.00 0.00 0.00 34 1011.4
20260504185532 75 181 3.0 16.0 0.00 0.00 0.00 36 1011.5
20260504185033 75 193 4.0 16.0 0.00 0.00 0.00 36 1011.5
20260504184532 76 178 5.0 16.0 0.00 0.00 0.00 36 1011.6
20260504183532 75 161 6.0 12.0 0.00 0.00 0.00 36 1011.7
20260504183032 75 256 5.0 12.0 0.00 0.00 0.00 36 1011.6
20260504182032 74 326 3.0 10.0 0.00 0.00 0.00 37 1011.9
20260504181533 74 143 3.0 10.0 0.00 0.00 0.00 38 1012.0
20260504180532 73 187 5.0 10.0 0.00 0.00 0.00 36 1012.1
20260504180032 74 244 4.0 10.0 0.00 0.00 0.00 38 1012.2
20260504175532 74 140 2.0 8.0 0.00 0.00 0.00 38 1012.2
20260504175032 74 129 3.0 8.0 0.00 0.00 0.00 37 1012.3
20260504174532 73 305 2.0 7.0 0.00 0.00 0.00 40 1012.3
20260504173532 72 318 2.0 12.0 0.00 0.00 0.00 39 1012.5
20260504173032 73 197 5.0 10.0 0.00 0.00 0.00 37 1012.6
20260504172532 73 214 1.0 5.0 0.00 0.00 0.00 41 1012.6
20260504171532 72 314 3.0 9.0 0.00 0.00 0.00 38 1012.8
20260504171032 72 204 3.0 10.0 0.00 0.00 0.00 38 1012.9
20260504170532 72 188 5.0 10.0 0.00 0.00 0.00 39 1013.0
20260504151032 67 119 1.0 12.0 0.00 0.00 0.00 44 1014.3
20260504150532 66 175 6.0 12.0 0.00 0.00 0.00 44 1014.2
20260504141032 63 225 1.0 7.0 0.00 0.00 0.00 48 1014.4
20260504140532 63 217 2.0 7.0 0.00 0.00 0.00 49 1014.4
20260504130532 57 139 2.0 5.0 0.00 0.00 0.00 57 1014.9
20260504110532 46 107 1.0 1.0 0.00 0.00 0.00 76 1015.3
20260504081032 48 352 1.0 1.0 0.00 0.00 0.00 76 1015.5
20260504080532 48 352 0.0 1.0 0.00 0.00 0.00 76 1015.5
20260504050532 45 352 0.0 0.0 0.00 0.00 0.00 80 1016.0
20260504045533 45 352 0.0 0.0 0.00 0.00 0.00 80 1015.9
20260504044532 44 352 0.0 0.0 0.00 0.00 0.00 80 1016.0
20260504044032 44 352 0.0 0.0 0.00 0.00 0.00 80 1016.0
20260504043532 44 352 0.0 0.0 0.00 0.00 0.00 80 1015.9
20260504043032 44 352 0.0 0.0 0.00 0.00 0.00 81 1016.0
20260504042532 44 352 0.0 0.0 0.00 0.00 0.00 80 1015.9
20260504042033 44 352 0.0 0.0 0.00 0.00 0.00 80 1015.8
20260504041532 44 352 0.0 0.0 0.00 0.00 0.00 80 1015.8
20260504040533 44 352 0.0 0.0 0.00 0.00 0.00 79 1015.8
20260504040033 44 352 0.0 0.0 0.00 0.00 0.00 78 1015.8
20260504035533 44 352 0.0 0.0 0.00 0.00 0.00 78 1015.8
20260504035032 44 352 0.0 1.0 0.00 0.00 0.00 78 1016.0
20260504034533 44 352 0.0 1.0 0.00 0.00 0.00 77 1015.9
20260504034033 44 352 0.0 1.0 0.00 0.00 0.00 78 1016.0
20260504033532 44 352 0.0 1.0 0.00 0.00 0.00 77 1016.0
20260504033032 44 352 0.0 1.0 0.00 0.00 0.00 77 1015.9
20260504032532 45 352 0.0 1.0 0.00 0.00 0.00 76 1015.9
20260504032033 45 352 0.0 1.0 0.00 0.00 0.00 76 1015.9
20260504031533 45 352 0.0 1.0 0.00 0.00 0.00 75 1015.9
20260504031032 45 352 0.0 1.0 0.00 0.00 0.00 75 1015.7
20260504030532 45 352 0.0 1.0 0.00 0.00 0.00 74 1015.8
20260504030033 45 352 0.0 1.0 0.00 0.00 0.00 74 1015.9
20260504025532 45 352 0.0 1.0 0.00 0.00 0.00 74 1015.8
20260504024533 46 352 0.0 1.0 0.00 0.00 0.00 73 1015.7
20260504024032 46 352 0.0 0.0 0.00 0.00 0.00 73 1015.6
20260504023032 46 352 0.0 0.0 0.00 0.00 0.00 71 1015.6
20260504022532 46 352 0.0 0.0 0.00 0.00 0.00 70 1015.7
20260504022032 46 352 0.0 0.0 0.00 0.00 0.00 71 1015.7
20260504021532 47 352 0.0 0.0 0.00 0.00 0.00 70 1015.6
20260504021032 47 352 0.0 0.0 0.00 0.00 0.00 68 1015.5
20260504015532 48 352 0.0 0.0 0.00 0.00 0.00 66 1015.4
20260504015032 48 352 0.0 0.0 0.00 0.00 0.00 65 1015.4
20260504014533 48 352 0.0 0.0 0.00 0.00 0.00 64 1015.3
20260504014032 49 352 0.0 0.0 0.00 0.00 0.00 63 1015.3
20260504013533 49 352 0.0 1.0 0.00 0.00 0.00 62 1015.2
20260504013032 49 352 0.0 1.0 0.00 0.00 0.00 62 1015.2
20260504012532 50 352 0.0 1.0 0.00 0.00 0.00 61 1015.0
20260504012032 50 352 0.0 1.0 0.00 0.00 0.00 60 1014.9
20260504011532 50 352 0.0 1.0 0.00 0.00 0.00 60 1014.9
20260504011032 51 352 0.0 0.0 0.00 0.00 0.00 59 1015.0
20260504010532 51 352 0.0 1.0 0.00 0.00 0.00 58 1015.1
20260504010032 51 352 0.0 1.0 0.00 0.00 0.00 55 1015.1
20260504005532 52 352 0.0 1.0 0.00 0.00 0.00 55 1015.1
20260504005032 52 352 0.0 0.0 0.00 0.00 0.00 54 1015.0
20260504004532 53 352 0.0 0.0 0.00 0.00 0.00 52 1014.9
20260504004032 53 352 0.0 0.0 0.00 0.00 0.00 51 1014.8
20260504003032 54 352 0.0 0.0 0.00 0.00 0.00 50 1014.7
20260504002532 55 352 0.0 0.0 0.00 0.00 0.00 49 1014.7
20260504001033 56 352 0.0 1.0 0.00 0.00 0.00 44 1014.6
20260503235532 58 204 0.0 0.0 0.00 0.00 0.00 39 1014.4
20260503235032 58 204 0.0 1.0 0.00 0.00 0.00 38 1014.3
20260503234532 59 204 0.0 1.0 0.00 0.00 0.00 39 1014.3
20260503233532 59 213 0.0 1.0 0.00 0.00 0.00 37 1014.3
20260503232532 60 213 0.0 2.0 0.00 0.00 0.00 36 1014.2
20260503232032 60 269 0.0 2.0 0.00 0.00 0.00 38 1014.2
20260503231532 60 284 0.0 2.0 0.00 0.00 0.00 35 1014.1
20260503231033 60 178 1.0 3.0 0.00 0.00 0.00 36 1014.1
20260503230532 60 207 1.0 3.0 0.00 0.00 0.00 34 1014.1
20260503230032 60 234 1.0 8.0 0.00 0.00 0.00 33 1014.0
20260503225532 61 200 0.0 8.0 0.00 0.00 0.00 35 1014.0
20260503225032 61 217 1.0 8.0 0.00 0.00 0.00 33 1014.1
20260503224532 61 285 1.0 3.0 0.00 0.00 0.00 34 1014.1
20260503224032 61 282 1.0 5.0 0.00 0.00 0.00 34 1014.1
20260503223532 61 278 2.0 5.0 0.00 0.00 0.00 34 1014.2
20260503223032 61 88 1.0 3.0 0.00 0.00 0.00 33 1014.2
20260503222532 61 324 1.0 5.0 0.00 0.00 0.00 32 1014.2
20260503222032 61 262 2.0 6.0 0.00 0.00 0.00 32 1014.2
20260503221031 61 288 2.0 5.0 0.00 0.00 0.00 33 1014.2
20260503220532 61 331 2.0 6.0 0.00 0.00 0.00 32 1014.3
20260503220032 61 310 2.0 6.0 0.00 0.00 0.00 33 1014.2
20260503215532 61 231 3.0 6.0 0.00 0.00 0.00 33 1014.2
20260503215032 61 273 2.0 7.0 0.00 0.00 0.00 33 1014.2
20260503214532 61 280 1.0 7.0 0.00 0.00 0.00 33 1014.2
20260503214032 61 210 3.0 7.0 0.00 0.00 0.00 32 1014.3
20260503213532 62 45 3.0 7.0 0.00 0.00 0.00 32 1014.3
20260503212532 62 205 1.0 3.0 0.00 0.00 0.00 32 1014.3
20260503212032 62 258 1.0 12.0 0.00 0.00 0.00 32 1014.4
20260503211532 63 327 2.0 12.0 0.00 0.00 0.00 33 1014.4
20260503210032 62 287 1.0 3.0 0.00 0.00 0.00 33 1014.3
20260503205532 62 303 2.0 12.0 0.00 0.00 0.00 32 1014.3
20260503205032 62 257 3.0 12.0 0.00 0.00 0.00 32 1014.4
20260503204532 62 248 2.0 5.0 0.00 0.00 0.00 33 1014.4
20260503204032 62 313 3.0 5.0 0.00 0.00 0.00 31 1014.4
20260503203532 62 340 2.0 3.0 0.00 0.00 0.00 35 1014.4
20260503203032 62 343 2.0 7.0 0.00 0.00 0.00 32 1014.4
20260503202532 62 41 2.0 9.0 0.00 0.00 0.00 33 1014.4
20260503202032 62 212 3.0 9.0 0.00 0.00 0.00 33 1014.5
20260503201532 62 286 2.0 5.0 0.00 0.00 0.00 34 1014.6
20260503201032 62 39 2.0 5.0 0.00 0.00 0.00 33 1014.7
20260503200532 62 318 2.0 6.0 0.00 0.00 0.00 34 1015.0
20260503200031 62 330 1.0 8.0 0.00 0.00 0.00 35 1015.0
20260503195532 62 303 3.0 8.0 0.00 0.00 0.00 34 1015.1
20260503195032 62 242 3.0 8.0 0.00 0.00 0.00 33 1015.2
20260503194532 63 227 2.0 8.0 0.00 0.00 0.00 34 1015.2
20260503194032 62 318 2.0 7.0 0.00 0.00 0.00 35 1015.3
20260503193032 61 213 3.0 10.0 0.00 0.00 0.00 36 1015.5
20260503192532 61 330 2.0 7.0 0.00 0.00 0.00 36 1015.5
20260503192032 61 327 3.0 8.0 0.00 0.00 0.00 35 1015.7